Date,TemperatureHighF,TemperatureAvgF,TemperatureLowF,DewpointHighF,DewpointAvgF,DewpointLowF,HumidityHigh,HumidityAvg,HumidityLow,PressureMaxIn,PressureMinIn,WindSpeedMaxMPH,WindSpeedAvgMPH,GustSpeedMaxMPH,PrecipitationSumIn
2013-2-1,31.8,22.8,17.8,24.5,5.0,0.3,76,47,33,30.32,30.01,11,3,21,0.12
2013-2-2,40.6,34.4,19.4,25.6,14.6,5.1,66,45,30,30.33,30.09,3,0,7,0.00
2013-2-3,42.1,34.5,29.8,31.2,25.2,19.6,91,70,44,30.05,29.93,12,2,24,0.00
2013-2-4,51.1,35.8,24.8,23.3,18.4,14.4,71,51,27,30.15,30.02,4,1,10,0.00
2013-2-5,54.7,46.2,34.3,35.8,30.0,21.2,69,53,42,30.07,29.98,4,1,8,0.00
2013-2-6,56.7,48.3,38.7,29.4,19.3,11.0,69,34,17,30.28,30.07,7,1,11,0.00
2013-2-7,43.0,40.5,38.5,40.2,32.0,18.2,97,75,40,30.28,30.06,5,1,11,0.43
2013-2-8,48.2,40.7,32.4,39.9,33.0,25.5,98,75,51,30.18,29.98,11,2,23,0.45
2013-2-9,53.2,38.8,27.0,25.7,18.7,-0.6,81,52,12,30.35,30.16,8,1,19,0.00
2013-2-10,50.4,44.0,38.8,39.6,27.0,16.9,94,55,29,30.42,30.12,4,1,8,0.26
2013-2-11,57.0,51.7,46.8,54.1,42.3,16.3,99,73,27,30.17,30.07,6,1,11,0.32
2013-2-12,50.9,43.9,37.4,34.8,22.2,14.5,86,45,24,30.18,29.98,5,1,10,0.40
2013-2-13,48.0,39.9,34.2,44.2,36.0,27.4,98,86,68,29.96,29.72,11,2,20,0.60
2013-2-14,51.6,41.4,29.3,29.7,25.1,21.2,79,55,32,30.10,29.96,5,1,11,0.00
2013-2-15,56.1,39.8,28.9,34.4,27.5,22.3,84,65,28,30.15,30.00,7,1,15,0.00
2013-2-16,35.2,28.5,20.5,25.4,16.5,7.3,86,61,40,30.05,27.19,11,3,26,0.00
2013-2-17,32.2,28.2,21.0,8.2,5.0,0.3,56,37,27,30.25,30.01,11,3,33,0.00
2013-2-18,51.8,37.9,19.6,20.7,16.4,5.9,62,43,25,30.35,30.20,5,0,8,0.00
2013-2-19,53.2,42.7,33.1,41.4,23.5,7.5,93,51,24,30.21,29.92,8,2,17,0.07
2013-2-20,46.6,36.7,28.0,10.9,-6.2,-15.8,39,17,10,30.18,30.09,10,2,18,0.00
2013-2-21,60.8,45.9,25.2,31.8,11.2,-4.8,84,31,10,30.26,30.11,4,1,7,0.20
2013-2-22,40.1,37.1,32.9,38.6,35.1,30.6,96,92,83,30.27,30.12,2,0,6,0.22
2013-2-23,54.1,48.2,38.3,49.1,44.0,35.5,96,85,79,30.13,29.91,2,0,4,0.38
2013-2-24,56.7,47.5,40.1,44.3,18.8,9.8,93,33,16,30.11,29.93,7,2,13,0.38
2013-2-25,46.6,38.6,31.8,26.9,23.7,18.5,81,55,41,30.18,30.06,7,1,16,0.38
2013-2-26,39.6,37.6,31.5,38.8,36.8,30.2,99,97,94,29.93,26.99,4,1,7,0.93
2013-2-27,57.2,43.3,34.2,37.2,31.0,25.1,97,64,36,29.86,29.71,7,1,13,0.93
2013-2-28,40.5,34.2,29.7,32.7,22.8,20.3,80,63,49,29.96,29.82,8,3,17,0.00